Weather History for Oceana NAS, VA

Change the Weather History Date:

Tuesday, May 14, 2013

  Actual Average Record
Temperature  
Mean Temperature 54 °F -  
Max Temperature 64 °F 72 °F 84 °F (2004)
Min Temperature 45 °F 54 °F 42 °F (2007)
Degree Days  
Heating Degree Days 10    
Growing Degree Days 4 (Base 50)    
Moisture  
Dew Point 38 °F    
Average Humidity 52    
Maximum Humidity 77    
Minimum Humidity 30    
Precipitation  
Precipitation 0.00 in - - ()
Sea Level Pressure  
Sea Level Pressure 30.17 in    
Wind  
Wind Speed 7 mph (South)    
Max Wind Speed 14 mph    
Max Gust Speed 17 mph    
Visibility 10 miles    
Events      
Averages and records for this station are not official NWS values.
T = Trace of Precipitation, MM = Missing Value Source: NWS Daily Summary

Daily Weather History Graph

Daily Weather History Graph

Search for Another Location

Airport:

Trip Planner

Search our weather history database for the weather conditions in past years. The results will help you decide how hot, cold, wet, or windy it might be!

Date:

Astronomy

May. 14, 2013 Rise Set
Actual Time 5:57 AM EDT 8:04 PM EDT
Civil Twilight 5:28 AM EDT 8:33 PM EDT
Nautical Twilight 4:53 AM EDT 9:08 PM EDT
Astronomical Twilight 4:14 AM EDT 9:46 PM EDT
Moon 9:34 AM EDT (5/14) 11:51 PM EDT (5/14)
Length of Visible Light 15h 04m
Length of Day
14h 07m
Waxing Crescent, 19% of the Moon is Illuminated
May 14
Waxing Crescent
May 18
First Quarter
May 25
Full
May 31
Last Quarter
Jun 8
New

Hourly Weather History & Observations

Time (EDT) Temp. Dew Point Humidity Pressure Visibility Wind Dir Wind Speed Gust Speed Precip Events Conditions
12:56 AM 55.0 °F 30.0 °F 38% 30.15 in 10.0 mi NNW 10.4 mph - N/A   Mostly Cloudy
1:56 AM 53.1 °F 32.0 °F 45% 30.15 in 10.0 mi NNW 6.9 mph - N/A   Scattered Clouds
2:56 AM 51.1 °F 32.0 °F 48% 30.16 in 10.0 mi NE 5.8 mph - N/A   Scattered Clouds
3:56 AM 46.9 °F 36.0 °F 66% 30.16 in 10.0 mi Calm Calm - N/A   Partly Cloudy
4:56 AM 46.0 °F 37.0 °F 71% 30.16 in 10.0 mi Calm Calm - N/A   Partly Cloudy
5:56 AM 45.0 °F 37.0 °F 74% 30.18 in 10.0 mi Calm Calm - N/A   Scattered Clouds
6:56 AM 46.9 °F 39.9 °F 77% 30.19 in 10.0 mi Calm Calm - N/A   Scattered Clouds
7:56 AM 53.1 °F 41.0 °F 64% 30.21 in 10.0 mi Calm Calm - N/A   Scattered Clouds
8:56 AM 55.0 °F 37.0 °F 51% 30.22 in 10.0 mi WNW 3.5 mph - N/A   Mostly Cloudy
9:56 AM 59.0 °F 37.9 °F 46% 30.22 in 10.0 mi NW 9.2 mph - N/A   Mostly Cloudy
10:56 AM 60.1 °F 33.1 °F 36% 30.23 in 10.0 mi North 6.9 mph - N/A   Scattered Clouds
11:56 AM 61.0 °F 34.0 °F 36% 30.22 in 10.0 mi NW 6.9 mph - N/A   Scattered Clouds
12:56 PM 62.1 °F 34.0 °F 35% 30.20 in 10.0 mi Variable 5.8 mph 16.1 mph N/A   Scattered Clouds
1:56 PM 64.0 °F 32.0 °F 30% 30.18 in 10.0 mi WSW 13.8 mph 17.3 mph N/A   Scattered Clouds
2:56 PM 64.0 °F 34.0 °F 33% 30.16 in 10.0 mi WSW 6.9 mph - N/A   Scattered Clouds
3:56 PM 62.1 °F 37.9 °F 41% 30.14 in 10.0 mi ESE 10.4 mph - N/A   Scattered Clouds
4:56 PM 61.0 °F 37.9 °F 42% 30.15 in 10.0 mi East 10.4 mph - N/A   Scattered Clouds
5:56 PM 60.1 °F 39.9 °F 47% 30.13 in 10.0 mi SE 11.5 mph - N/A   Scattered Clouds
6:56 PM 57.9 °F 42.1 °F 56% 30.13 in 10.0 mi SSE 11.5 mph - N/A   Scattered Clouds
7:56 PM 57.9 °F 43.0 °F 58% 30.12 in 10.0 mi SSE 12.7 mph - N/A   Mostly Cloudy
8:56 PM 57.9 °F 45.0 °F 62% 30.13 in 10.0 mi SSE 10.4 mph - N/A   Overcast
9:56 PM 57.9 °F 46.9 °F 67% 30.13 in 10.0 mi SSE 8.1 mph - N/A   Overcast
10:56 PM 59.0 °F 48.9 °F 69% 30.13 in 10.0 mi South 6.9 mph - N/A   Overcast
11:56 PM 60.1 °F 48.0 °F 64% 30.12 in 10.0 mi South 5.8 mph - N/A   Overcast